Showing default

COSMOS 1999, 19790

Orbit data source: Space-Track

COSMOS 1999, 19790 is a payload satellite owned by UNKS (CIS) in LEO that was launched on Fri, 10 Feb 1989 UTC via a TSIKLON-3 launch vehicle from the Plesetsk Missile And Space Complex (PKMTR). Payload-class satellites include a variety of spacecraft equipped with specific instruments for various scientific and technological missions. These include communications satellites like Starlink; space stations such as the ISS; scientific satellites like the Hubble; Earth observation satellites from companies like Planet Labs, Umbra, and HawkEye 360; GPS; miniature CubeSats for education and research; and military/defense satellites.

Loading next visibility...
Identifier
19790, 1989-009F
Orbit
LEO
Country
Flag of CISCIS
Related business
Manufacturer
NPO PM
Mission
Defense Communications
Bus & Motor
STRELA-3, Unknown motor
Mass
225 kg wet, 225 kg dry
Launch date (UTC)
1989-02-10 (38 years ago)
Launch vehicle
TSIKLON-3
Launch site
Plesetsk Missile And Space Complex (PKMTR)
Object type
Payload
Rocket body
Debris
Shape & HBR
Cyl, 0.9 m
Radar Cross Section
1.257 m², Large (>1 m²)

Expand to show TLE details & history
Last TLE update: 6 hours ago

TLE from 6 hours ago
0 COSMOS 1999
1 19790U 89009F   26262.82390411  .00000023  00000-0  67261-4 0  9999
2 19790  82.6130 266.2809 0019753  10.4493 104.4102 12.65752395737225
Epoch: 2026-09-19T19:46Z
TLE epoch observation values (Epoch: 2026-09-19T19:46:25.315Z)
Latitude
64.00642°
Longitude
135.60668°
Altitude
1,414.136 km
Speed
7.158 km/s
True Right ascension
04h 43m 45s
True Declination
63° 52' 56"
Sunlit
Object was in daylight at epoch
Visualization orbit readout
Latitude
Unknown
Longitude
Unknown
Altitude
Unknown
Speed
Unknown
Apparent Right ascension
Unknown
Apparent Declination
Unknown
Sunlit
N/A
Visualization observer readout
Local Sidereal Time
18:22:04
Azimuth
Unknown
Elevation
Unknown
Doppler factor
Unknown
Orbital elements
Apogee altitude
1,411.963 km
Perigee altitude
1,381.248 km
Semi-major axis
7,774.743 km
Eccentricity
0.00198
Inclination
82.613°
RAAN
266.2809°
Arg. of periapsis
10.4493°
True anomaly
104.6293°
Mean anomaly
104.4102°
Eccentric anomaly
104.51976°
Mean motion
3.16602 °/min
Orbital period
113.71 mins
BSTAR
0.000067261
Loading maneuver chart data...
Computing Atmospheric mass density...
Loading historical data...
Loading historical data...
Loading historical data...
Loading historical data...
Loading historical data...
Loading historical data...
Loading historical data...

Documentation

Showing up to 5 results
|